Regional Weather Roundup
Issued by NWS San Diego, CA

Home | Current Version | Previous Version | Text Only | Print | Product List | Glossary On
Versions: 1 2 3 4 5 6 7 8 9 10 11 12 13 14 15 16 17 18 19 20 21 22 23 24 25 26 27
000
ASUS46 KSGX 230911
RWRSGX

SAN DIEGO HOURLY WEATHER ROUNDUP
NATIONAL WEATHER SERVICE SAN DIEGO CA
200 AM PDT MON APR 23 2018

NOTE: "FAIR" INDICATES FEW OR NO CLOUDS BELOW 12,000 FEET WITH NO
SIGNIFICANT WEATHER AND/OR OBSTRUCTIONS TO VISIBILITY.

CAZ042-043-060-061-PZZ750-775-231000-

GREATER SAN DIEGO AREA

CITY           SKY/WX    TMP DP  RH WIND       PRES   REMARKS
SAN DIEGO AP   CLOUDY    58  56  93 CALM      29.99S FOG
NATIONAL CITY    N/A     59  56  91 CALM      29.98S
CHULA VISTA      N/A     58  57  95 CALM      29.89S
IMPERIAL BEACH CLOUDY    57  55  93 W5        29.98S FOG
BROWN FIELD    FOG       56  56 100 CALM      29.97S VSB 1/4
MIRAMAR MCAS   FOG       59  55  87 CALM      29.97S VSB 1/2
MONTGOMERY FLD FOG       56  56 100 CALM      29.97F VSB 3/4
GILLESPIE FLD  FAIR      57  54  88 CALM      29.96S

$$

NORTH SAN DIEGO COUNTY

CITY           SKY/WX    TMP DP  RH WIND       PRES   REMARKS
CAMP PENDLETON FOG       55  55 100 NE5       29.97S VSB 3/4
OCEANSIDE AP   CLOUDY    59  56  89 CALM      29.96F FOG
OCEANSIDE HBR    N/A     58  57  96 CALM      29.98F
VISTA            N/A     57  51  81 CALM      29.94R
CARLSBAD       FOG       57  57 100 CALM      29.96S VSB 1/2
DEL MAR          N/A     57  56  95 CALM      29.98F
LA JOLLA SCRIP   N/A     57  56  97 E1        29.96S
FALLBROOK        N/A     54  54 100 CALM      29.96S
ESCONDIDO        N/A     59  54  83 W3        29.96R
SAN MARCOS       N/A     56  53  87 CALM      29.99S
POWAY            N/A     53  47  81 CALM      29.95S

$$

EAST SAN DIEGO COUNTY

CITY           SKY/WX    TMP DP  RH WIND       PRES   REMARKS
RAMONA         CLEAR     44  33  65 W3        29.97S
SANTEE LAKES     N/A     54  51  87 CALM      29.96R
LA MESA          N/A     55  53  93 CALM      29.91S
JAMUL            N/A     52  49  89 CALM      29.95S
CAMPO            N/A     45  32  60 NE7       29.97F

$$

ORANGE COUNTY AND THE LOS ANGELES BASIN

CITY           SKY/WX    TMP DP  RH WIND       PRES   REMARKS
JOHN WAYNE AP  CLEAR     58  56  93 SW7       29.96R
LAGUNA BEACH     N/A     53  51  92 CALM      29.91S
LAKE FOREST FR   N/A     57  45  62 CALM      29.83R
HUNTINGTON BCH   N/A     58  56  94 SE3       29.97R
LOS ALAMITOS   CLOUDY    57  56  98 S6        29.96R
FULLERTON      CLEAR     59  56  89 CALM      29.95S
LONG BEACH     CLOUDY    60  56  86 S5        29.96S FOG
L.A. AP        MOCLDY    58  55  90 CALM      29.96S
L.A. DOWNTOWN  CLEAR     58  56  93 CALM      29.95S FOG

$$

THE INLAND EMPIRE

CITY           SKY/WX    TMP DP  RH WIND       PRES   REMARKS
CORONA         CLEAR     52  49  89 CALM      29.96
CHINO          CLEAR     57  48  72 CALM      29.97S
ONTARIO        CLEAR     59  45  59 CALM      29.95F
SAN BERNARDINO FAIR      63  38  40 CALM      29.97S
RIVERSIDE AP   CLEAR     60  45  57 CALM      29.95F
MORENO VALLEY    N/A     59  42  52 CALM      28.07F
MARCH ARB      CLEAR     53  37  56 CALM      29.97S
HORSETHIEF CYN   N/A     59  29  31 CALM      29.94S
PERRIS           N/A     60  47  61 CALM      29.90F
HEMET EAST       N/A     60  28  29 CALM      29.87F
FRENCH VALLEY  FAIR      57  43  58 CALM      29.98R
TEMECULA         N/A     57  47  71 CALM      30.04S

$$

SAN BERNARDINO AND RIVERSIDE COUNTY MOUNTAINS

CITY           SKY/WX    TMP DP  RH WIND       PRES   REMARKS
BIG BEAR AP    CLEAR     36  23  60 CALM      30.18F
ANGELUS OAKS     N/A     48  23  37 CALM      29.87F

$$

SOUTHERN DESERT INCLUDING THE COACHELLA VALLEY

CITY           SKY/WX    TMP DP  RH WIND       PRES   REMARKS
PALM SPRINGS   CLEAR     75  36  24 SE3       29.85S
THOUSAND PALMS   N/A     80  32  17 NW12      29.78F
PALM DESERT      N/A     72  45  38 CALM        N/A
THERMAL        CLEAR     78  34  20 NW6       29.79S
BLYTHE         CLEAR     72  36  26 S5        29.83F
IMPERIAL AP    CLEAR     69  36  29 W8        29.81S
EL CENTRO NAS  CLEAR     70  33  25 W5        29.83S
YUMA AZ        CLEAR     68  40  35 CALM      29.83F
MEXICALI         N/A    N/A N/A N/A MISG        N/A

$$

UPPER DESERT

CITY           SKY/WX    TMP DP  RH WIND       PRES   REMARKS
VICTORVILLE AP CLEAR     57  30  35 S6        30.00S
HESPERIA         N/A     59  36  42 W3        29.92S
APPLE VALLEY     N/A     49  37  64 N1        29.96S
PALMDALE       CLEAR     61  33  35 SW9       29.99S
LANCASTER      CLEAR     63  35  35 W8        29.97F
EDWARDS AFB    CLEAR     63  31  29 SW14      29.94F
DAGGETT        CLEAR     69  32  25 W9        29.92S
29 PALMS N     CLEAR     69  21  16 W12       29.99S
NEEDLES        CLEAR     77  19  11 SW12      29.84F

$$

REGIONAL REPORTS

CITY           SKY/WX    TMP DP  RH WIND       PRES   REMARKS
SANTA BARBARA  PTCLDY    53  52  96 SE5       29.93F FOG
SANDBERG       CLEAR     59  38  45 N21       30.08F
LAS VEGAS NV   PTCLDY    76  24  14 S10       29.87S
PHOENIX AZ     CLEAR     74  27  17 CALM      29.86S
TIJUANA        FOG       55  55 100 CALM      29.99S VSB 1/16

$$

OFFSHORE ISLANDS

CITY           SKY/WX    TMP DP  RH WIND       PRES   REMARKS
CATALINA ARPT  CLEAR     66  44  45 NW3       29.98F
SAN NICOLAS IS CLEAR     55 N/A N/A VRB5      29.96R

$$

MARINE AND OFFSHORE BUOY REPORTS

STATION/POSITION SKY/WX   TEMP    WIND        PRES    VSBY  SWELL
                          AIR SEA DIR/SP/G                  HT/PER/DIR
                          (F)     (DEG/KT/KT) (MB)    (MI)  (FT/S/D)
TANNER BANKS               56 59              1014.8F
S CLEMENTE BASIN           58 62  280/ 10/ 12 1014.4F         5/270/15
SAN NICOLAS IS.               57                N/A           7/310/11
SO. S. ROSA ISLA           55 56  290/ 16/ 19 1013.9S         7/260/14
W. S. BARBARA CH              54  310/ 17/ 23 1012.9F         8/290/13
M. S. BARBARA CH           53 56  220/ 10/ 14   N/A           5/250/14
S. MONICA BASIN                   140/  6/  8 1013.8F         3/180/15
S PEDRO CHANNEL               58                N/A           3/200/14
CMP PENDLETON NS              61                N/A           2/230/13
OCEANSIDE OFFSHR              61                N/A           2/200/15
TORREY PINES OTR              62                N/A           2/200/15
SAN DIEGO BAY                 61              1014.7S
POINT LOMA SOUTH              62                N/A           3/200/14

$$





USA.gov is the U.S. government's official web portal to all federal, state and local government web resources and services.